Time,TemperatureF,DewpointF,PressureIn,WindDirection,WindDirectionDegrees,WindSpeedMPH,WindSpeedGustMPH,Humidity,HourlyPrecipIn,Conditions,Clouds,dailyrainin,SolarRadiationWatts/m^2,SoftwareType,DateUTC
2013-03-05 00:00:00,45.0,42.2,30.19,NNW,331,0.0,0.0,90,0.00,,,0.00,0.0,WeatherDisplay:10.37,2013-03-05 05:00:00,
2013-03-05 00:05:00,45.0,42.2,30.18,NNW,331,0.0,0.0,90,0.00,,,0.00,0.0,WeatherDisplay:10.37,2013-03-05 05:05:00,
2013-03-05 00:10:00,45.1,42.3,30.18,NNW,331,0.0,0.0,90,0.00,,,0.00,0.0,WeatherDisplay:10.37,2013-03-05 05:10:00,
2013-03-05 00:15:00,45.1,42.1,30.17,NNW,331,0.0,0.0,89,0.00,,,0.00,0.0,WeatherDisplay:10.37,2013-03-05 05:15:00,
2013-03-05 00:20:00,44.9,42.1,30.17,NNW,331,0.0,0.0,90,0.00,,,0.00,0.0,WeatherDisplay:10.37,2013-03-05 05:20:00,
2013-03-05 00:25:00,44.9,42.1,30.17,NNW,331,0.0,0.0,90,0.00,,,0.00,0.0,WeatherDisplay:10.37,2013-03-05 05:25:00,
2013-03-05 00:30:00,44.8,42.3,30.16,NNW,331,0.0,0.0,91,0.00,,,0.00,0.0,WeatherDisplay:10.37,2013-03-05 05:30:00,
2013-03-05 00:35:00,45.1,42.6,30.16,NNW,331,0.0,0.0,91,0.00,,,0.00,0.0,WeatherDisplay:10.37,2013-03-05 05:35:00,
2013-03-05 00:40:00,45.3,42.8,30.16,NNW,331,0.0,0.0,91,0.00,,,0.00,0.0,WeatherDisplay:10.37,2013-03-05 05:40:00,
2013-03-05 00:45:00,45.5,42.7,30.16,NNW,331,0.0,0.0,90,0.00,,,0.00,0.0,WeatherDisplay:10.37,2013-03-05 05:45:00,
2013-03-05 00:50:00,45.5,42.4,30.16,NNW,331,0.0,0.0,89,0.00,,,0.00,0.0,WeatherDisplay:10.37,2013-03-05 05:50:00,
2013-03-05 00:55:00,45.3,42.2,30.16,NNW,331,0.0,0.0,89,0.00,,,0.00,0.0,WeatherDisplay:10.37,2013-03-05 05:55:00,
2013-03-05 01:00:00,45.3,42.2,30.16,NNW,331,0.0,0.0,89,0.00,,,0.00,0.0,WeatherDisplay:10.37,2013-03-05 06:00:00,
2013-03-05 01:05:00,45.3,42.2,30.16,NNW,331,0.0,0.0,89,0.00,,,0.00,0.0,WeatherDisplay:10.37,2013-03-05 06:05:00,
2013-03-05 01:10:00,45.3,42.5,30.17,NNW,331,0.0,0.0,90,0.00,,,0.00,0.0,WeatherDisplay:10.37,2013-03-05 06:10:00,
2013-03-05 01:15:00,45.1,42.3,30.17,NNW,331,0.0,0.0,90,0.00,,,0.00,0.0,WeatherDisplay:10.37,2013-03-05 06:15:00,
2013-03-05 01:20:00,44.9,42.1,30.17,NNW,331,0.0,0.0,90,0.00,,,0.00,0.0,WeatherDisplay:10.37,2013-03-05 06:20:00,
2013-03-05 01:25:00,44.5,41.7,30.17,NNW,331,0.0,0.0,90,0.00,,,0.00,0.0,WeatherDisplay:10.37,2013-03-05 06:25:00,
2013-03-05 01:30:00,44.2,41.7,30.17,NNW,331,0.0,0.0,91,0.00,,,0.00,0.0,WeatherDisplay:10.37,2013-03-05 06:30:00,
2013-03-05 01:35:00,44.3,41.8,30.17,NNW,331,0.0,0.0,91,0.00,,,0.00,0.0,WeatherDisplay:10.37,2013-03-05 06:35:00,
2013-03-05 01:40:00,44.2,41.7,30.16,NNW,331,0.0,0.0,91,0.00,,,0.00,0.0,WeatherDisplay:10.37,2013-03-05 06:40:00,
2013-03-05 01:45:00,44.1,41.6,30.16,NNW,331,0.0,0.0,91,0.00,,,0.00,0.0,WeatherDisplay:10.37,2013-03-05 06:45:00,
2013-03-05 01:50:00,44.1,41.9,30.16,NNW,331,0.0,0.0,92,0.00,,,0.00,0.0,WeatherDisplay:10.37,2013-03-05 06:50:00,
2013-03-05 01:55:00,43.9,41.4,30.16,NNW,331,0.0,0.0,91,0.00,,,0.00,0.0,WeatherDisplay:10.37,2013-03-05 06:55:00,
2013-03-05 02:00:00,44.0,41.8,30.16,NNW,331,0.0,0.0,92,0.00,,,0.00,0.0,WeatherDisplay:10.37,2013-03-05 07:00:00,
2013-03-05 02:05:00,44.1,41.9,30.16,NNW,331,0.0,0.0,92,0.00,,,0.00,0.0,WeatherDisplay:10.37,2013-03-05 07:05:00,
2013-03-05 02:10:00,43.9,41.4,30.16,NNW,331,0.0,0.0,91,0.00,,,0.00,0.0,WeatherDisplay:10.37,2013-03-05 07:10:00,
2013-03-05 02:15:00,43.8,41.6,30.16,NNW,331,0.0,0.0,92,0.00,,,0.00,0.0,WeatherDisplay:10.37,2013-03-05 07:15:00,
2013-03-05 02:20:00,43.6,41.4,30.16,NNW,331,0.0,0.0,92,0.00,,,0.00,0.0,WeatherDisplay:10.37,2013-03-05 07:20:00,
2013-03-05 02:25:00,43.6,41.7,30.16,NNW,331,0.0,0.0,93,0.00,,,0.00,0.0,WeatherDisplay:10.37,2013-03-05 07:25:00,
2013-03-05 02:30:00,43.7,41.8,30.16,NNW,331,0.0,0.0,93,0.00,,,0.00,0.0,WeatherDisplay:10.37,2013-03-05 07:30:00,
2013-03-05 02:35:00,43.6,41.7,30.16,NNW,331,0.0,0.0,93,0.00,,,0.00,0.0,WeatherDisplay:10.37,2013-03-05 07:35:00,
2013-03-05 02:40:00,43.4,41.5,30.16,NNW,331,0.0,0.0,93,0.00,,,0.00,0.0,WeatherDisplay:10.37,2013-03-05 07:40:00,
2013-03-05 02:45:00,43.3,41.7,30.16,NNW,331,0.0,0.0,94,0.00,,,0.00,0.0,WeatherDisplay:10.37,2013-03-05 07:45:00,
2013-03-05 02:50:00,43.1,41.2,30.16,NNW,331,0.0,0.0,93,0.00,,,0.00,0.0,WeatherDisplay:10.37,2013-03-05 07:50:00,
2013-03-05 02:55:00,43.1,41.5,30.16,NNW,331,0.0,0.0,94,0.00,,,0.00,0.0,WeatherDisplay:10.37,2013-03-05 07:55:00,
2013-03-05 03:00:00,43.1,41.5,30.16,NNW,331,0.0,0.0,94,0.00,,,0.00,0.0,WeatherDisplay:10.37,2013-03-05 08:00:00,
2013-03-05 03:05:00,43.1,41.5,30.16,NNW,331,0.0,0.0,94,0.00,,,0.00,0.0,WeatherDisplay:10.37,2013-03-05 08:05:00,
2013-03-05 03:10:00,43.0,41.4,30.16,NNW,331,0.0,0.0,94,0.00,,,0.00,0.0,WeatherDisplay:10.37,2013-03-05 08:10:00,
2013-03-05 03:15:00,42.8,41.2,30.15,NNW,331,0.0,0.0,94,0.00,,,0.00,0.0,WeatherDisplay:10.37,2013-03-05 08:15:00,
2013-03-05 03:20:00,42.6,41.0,30.15,NNW,331,0.0,0.0,94,0.00,,,0.00,0.0,WeatherDisplay:10.37,2013-03-05 08:20:00,
2013-03-05 03:25:00,42.8,41.2,30.15,NNW,331,0.0,0.0,94,0.00,,,0.00,0.0,WeatherDisplay:10.37,2013-03-05 08:25:00,
2013-03-05 03:30:00,42.7,41.1,30.15,NNW,331,0.0,0.0,94,0.00,,,0.00,0.0,WeatherDisplay:10.37,2013-03-05 08:30:00,
2013-03-05 03:35:00,42.7,41.1,30.15,NNW,331,0.0,0.0,94,0.00,,,0.00,0.0,WeatherDisplay:10.37,2013-03-05 08:35:00,
2013-03-05 03:40:00,42.5,40.9,30.15,NNW,331,0.0,0.0,94,0.00,,,0.00,0.0,WeatherDisplay:10.37,2013-03-05 08:40:00,
2013-03-05 03:45:00,42.3,40.7,30.15,NNW,331,0.0,0.0,94,0.00,,,0.00,0.0,WeatherDisplay:10.37,2013-03-05 08:45:00,
2013-03-05 03:50:00,42.3,41.0,30.15,NNW,331,0.0,0.0,95,0.00,,,0.00,0.0,WeatherDisplay:10.37,2013-03-05 08:50:00,
2013-03-05 03:55:00,42.3,41.0,30.15,NNW,331,0.0,0.0,95,0.00,,,0.00,0.0,WeatherDisplay:10.37,2013-03-05 08:55:00,
2013-03-05 04:00:00,42.3,41.0,30.15,NNW,331,0.0,0.0,95,0.00,,,0.00,0.0,WeatherDisplay:10.37,2013-03-05 09:00:00,
2013-03-05 04:05:00,42.4,41.1,30.15,NNW,331,0.0,0.0,95,0.00,,,0.00,0.0,WeatherDisplay:10.37,2013-03-05 09:05:00,
2013-03-05 04:10:00,42.4,41.1,30.15,NNW,331,0.0,0.0,95,0.00,,,0.00,0.0,WeatherDisplay:10.37,2013-03-05 09:10:00,
2013-03-05 04:15:00,42.3,41.0,30.15,NNW,331,0.0,0.0,95,0.00,,,0.00,0.0,WeatherDisplay:10.37,2013-03-05 09:15:00,
2013-03-05 04:20:00,42.4,41.1,30.15,NNW,331,0.0,0.0,95,0.00,,,0.00,0.0,WeatherDisplay:10.37,2013-03-05 09:20:00,
2013-03-05 04:25:00,42.5,41.2,30.15,NNW,331,0.0,0.0,95,0.00,,,0.00,0.0,WeatherDisplay:10.37,2013-03-05 09:25:00,
2013-03-05 04:30:00,42.5,41.2,30.15,NNW,331,0.0,0.0,95,0.00,,,0.00,0.0,WeatherDisplay:10.37,2013-03-05 09:30:00,
2013-03-05 04:35:00,42.5,41.2,30.15,NNW,331,0.0,0.0,95,0.00,,,0.00,0.0,WeatherDisplay:10.37,2013-03-05 09:35:00,
2013-03-05 04:40:00,42.7,41.4,30.15,NNW,331,0.0,0.0,95,0.00,,,0.00,0.0,WeatherDisplay:10.37,2013-03-05 09:40:00,
2013-03-05 04:45:00,42.9,41.3,30.15,NNW,331,0.2,0.0,94,0.00,,,0.00,0.0,WeatherDisplay:10.37,2013-03-05 09:45:00,
2013-03-05 04:50:00,43.0,41.4,30.14,NNW,331,0.0,0.0,94,0.00,,,0.00,0.0,WeatherDisplay:10.37,2013-03-05 09:50:00,
2013-03-05 04:55:00,43.2,41.6,30.15,NNW,331,0.0,1.2,94,0.00,,,0.00,0.0,WeatherDisplay:10.37,2013-03-05 09:55:00,
2013-03-05 05:00:00,43.8,42.2,30.14,SE,126,0.5,2.3,94,0.00,,,0.00,0.0,WeatherDisplay:10.37,2013-03-05 10:00:00,
2013-03-05 05:05:00,44.7,43.1,30.15,SE,127,0.0,1.2,94,0.00,,,0.00,0.0,WeatherDisplay:10.37,2013-03-05 10:05:00,
2013-03-05 05:10:00,45.7,43.8,30.15,SE,126,0.1,2.0,93,0.00,,,0.00,0.0,WeatherDisplay:10.37,2013-03-05 10:10:00,
2013-03-05 05:15:00,46.0,43.5,30.15,SE,136,0.0,0.0,91,0.00,,,0.00,0.0,WeatherDisplay:10.37,2013-03-05 10:15:00,
2013-03-05 05:20:00,46.1,43.6,30.16,SE,136,0.0,1.2,91,0.00,,,0.00,0.0,WeatherDisplay:10.37,2013-03-05 10:20:00,
2013-03-05 05:25:00,46.2,44.0,30.16,SE,136,0.0,0.0,92,0.00,,,0.00,0.0,WeatherDisplay:10.37,2013-03-05 10:25:00,
2013-03-05 05:30:00,46.2,44.0,30.16,SE,136,0.0,0.0,92,0.00,,,0.00,0.0,WeatherDisplay:10.37,2013-03-05 10:30:00,
2013-03-05 05:35:00,46.1,43.9,30.16,SE,136,0.0,0.0,92,0.00,,,0.00,0.0,WeatherDisplay:10.37,2013-03-05 10:35:00,
2013-03-05 05:40:00,45.9,43.7,30.16,SE,136,0.0,0.0,92,0.00,,,0.00,0.0,WeatherDisplay:10.37,2013-03-05 10:40:00,
2013-03-05 05:45:00,45.8,43.9,30.16,SE,136,0.0,0.0,93,0.00,,,0.00,0.0,WeatherDisplay:10.37,2013-03-05 10:45:00,
2013-03-05 05:50:00,45.7,43.8,30.16,SE,136,0.0,0.0,93,0.00,,,0.00,0.0,WeatherDisplay:10.37,2013-03-05 10:50:00,
2013-03-05 05:55:00,45.6,43.7,30.16,SE,136,0.0,0.0,93,0.00,,,0.00,0.0,WeatherDisplay:10.37,2013-03-05 10:55:00,
2013-03-05 06:00:00,45.4,43.8,30.16,SE,136,0.0,0.0,94,0.00,,,0.00,0.0,WeatherDisplay:10.37,2013-03-05 11:00:00,
2013-03-05 06:05:00,45.2,43.6,30.17,SE,136,0.0,0.0,94,0.00,,,0.00,0.0,WeatherDisplay:10.37,2013-03-05 11:05:00,
2013-03-05 06:10:00,45.0,43.4,30.17,SE,136,0.0,0.0,94,0.00,,,0.00,0.0,WeatherDisplay:10.37,2013-03-05 11:10:00,
2013-03-05 06:15:00,45.1,43.8,30.17,SE,136,0.0,0.0,95,0.00,,,0.00,0.0,WeatherDisplay:10.37,2013-03-05 11:15:00,
2013-03-05 06:20:00,44.9,43.6,30.17,SE,136,0.0,0.0,95,0.00,,,0.00,0.0,WeatherDisplay:10.37,2013-03-05 11:20:00,
2013-03-05 06:25:00,44.7,43.4,30.17,SE,136,0.1,0.0,95,0.00,,,0.00,0.0,WeatherDisplay:10.37,2013-03-05 11:25:00,
2013-03-05 06:30:00,44.9,43.6,30.17,SE,136,0.0,0.0,95,0.00,,,0.00,0.0,WeatherDisplay:10.37,2013-03-05 11:30:00,
2013-03-05 06:35:00,45.0,43.7,30.17,SE,136,0.0,0.0,95,0.00,,,0.00,0.0,WeatherDisplay:10.37,2013-03-05 11:35:00,
2013-03-05 06:41:00,44.9,43.6,30.17,SE,136,0.0,0.0,95,0.00,,,0.00,0.0,WeatherDisplay:10.37,2013-03-05 11:41:00,
2013-03-05 06:46:00,45.1,44.0,30.17,SE,135,0.0,0.0,96,0.00,,,0.00,0.0,WeatherDisplay:10.37,2013-03-05 11:46:00,
2013-03-05 06:51:00,45.1,44.0,30.17,SE,136,0.0,0.0,96,0.00,,,0.00,5.0,WeatherDisplay:10.37,2013-03-05 11:51:00,
2013-03-05 06:56:00,45.1,44.0,30.18,SE,136,0.0,0.0,96,0.00,,,0.00,7.0,WeatherDisplay:10.37,2013-03-05 11:56:00,
2013-03-05 07:01:00,45.5,44.4,30.18,SE,136,0.0,0.0,96,0.00,,,0.00,11.0,WeatherDisplay:10.37,2013-03-05 12:01:00,
2013-03-05 07:06:00,45.6,44.5,30.18,SE,136,0.0,0.0,96,0.00,,,0.00,14.0,WeatherDisplay:10.37,2013-03-05 12:06:00,
2013-03-05 07:11:00,45.4,44.1,30.18,SE,136,0.0,0.0,95,0.00,,,0.00,16.0,WeatherDisplay:10.37,2013-03-05 12:11:00,
2013-03-05 07:16:00,45.4,44.3,30.19,SE,136,0.0,0.0,96,0.00,,,0.00,19.0,WeatherDisplay:10.37,2013-03-05 12:16:00,
2013-03-05 07:21:00,45.7,44.6,30.18,SE,136,0.0,0.0,96,0.00,,,0.00,23.0,WeatherDisplay:10.37,2013-03-05 12:21:00,
2013-03-05 07:26:00,46.0,44.9,30.19,SE,136,0.0,0.0,96,0.00,,,0.00,26.0,WeatherDisplay:10.37,2013-03-05 12:26:00,
2013-03-05 07:31:00,46.4,45.3,30.19,SE,136,0.0,0.0,96,0.00,,,0.00,28.0,WeatherDisplay:10.37,2013-03-05 12:31:00,
2013-03-05 07:36:00,46.5,45.1,30.18,SE,136,0.0,0.0,95,0.00,,,0.00,30.0,WeatherDisplay:10.37,2013-03-05 12:36:00,
2013-03-05 07:41:00,47.5,46.4,30.18,SE,134,0.0,0.0,96,0.00,,,0.00,39.0,WeatherDisplay:10.37,2013-03-05 12:41:00,
2013-03-05 07:46:00,48.8,47.4,30.19,SE,134,0.1,1.2,95,0.00,,,0.00,134.0,WeatherDisplay:10.37,2013-03-05 12:46:00,
2013-03-05 07:51:00,50.6,48.4,30.19,SE,134,0.0,0.0,92,0.00,,,0.00,155.0,WeatherDisplay:10.37,2013-03-05 12:51:00,
2013-03-05 07:56:00,51.6,48.8,30.19,SSE,154,1.2,3.5,90,0.00,,,0.00,176.0,WeatherDisplay:10.37,2013-03-05 12:56:00,
2013-03-05 08:01:00,52.3,49.2,30.19,SSE,154,0.0,2.3,89,0.00,OVC,,0.00,197.0,WeatherDisplay:10.37,2013-03-05 13:01:00,
2013-03-05 08:06:00,53.2,49.4,30.19,SSE,153,1.0,3.5,87,0.00,OVC,,0.00,216.0,WeatherDisplay:10.37,2013-03-05 13:06:00,
2013-03-05 08:11:00,54.1,50.0,30.19,SE,136,2.4,3.5,86,0.00,OVC,,0.00,234.0,WeatherDisplay:10.37,2013-03-05 13:11:00,
2013-03-05 08:16:00,54.6,49.9,30.19,SE,137,3.4,5.8,84,0.00,OVC,,0.00,246.0,WeatherDisplay:10.37,2013-03-05 13:16:00,
2013-03-05 08:21:00,55.3,50.2,30.19,South,179,2.9,4.6,83,0.00,OVC,,0.00,265.0,WeatherDisplay:10.37,2013-03-05 13:21:00,
2013-03-05 08:26:00,55.9,50.2,30.19,South,169,3.3,4.6,81,0.00,OVC,,0.00,287.0,WeatherDisplay:10.37,2013-03-05 13:26:00,
2013-03-05 08:31:00,56.5,50.4,30.19,SSE,151,2.2,4.0,80,0.00,OVC,,0.00,308.0,WeatherDisplay:10.37,2013-03-05 13:31:00,
2013-03-05 08:36:00,56.9,50.5,30.19,SSE,148,2.5,5.0,79,0.00,OVC,,0.00,327.0,WeatherDisplay:10.37,2013-03-05 13:36:00,
2013-03-05 08:41:00,57.5,51.0,30.19,SE,128,2.2,4.6,79,0.00,OVC,,0.00,346.0,WeatherDisplay:10.37,2013-03-05 13:41:00,
2013-03-05 08:46:00,58.1,50.9,30.19,South,188,1.4,3.5,77,0.00,OVC,,0.00,366.0,WeatherDisplay:10.37,2013-03-05 13:46:00,
2013-03-05 08:51:00,58.5,51.0,30.19,ESE,109,2.3,3.5,76,0.00,OVC,,0.00,383.0,WeatherDisplay:10.37,2013-03-05 13:51:00,
2013-03-05 08:56:00,59.2,51.3,30.20,SSW,205,3.6,5.8,75,0.00,OVC,,0.00,401.0,WeatherDisplay:10.37,2013-03-05 13:56:00,
2013-03-05 09:01:00,59.7,51.4,30.20,SSW,210,0.6,2.3,74,0.00,OVC,,0.00,415.0,WeatherDisplay:10.37,2013-03-05 14:01:00,
2013-03-05 09:06:00,60.3,52.3,30.19,SSW,204,3.1,4.0,75,0.00,OVC,,0.00,432.0,WeatherDisplay:10.37,2013-03-05 14:06:00,
2013-03-05 09:11:00,60.8,52.5,30.20,SW,215,1.6,3.0,74,0.00,OVC,,0.00,452.0,WeatherDisplay:10.37,2013-03-05 14:11:00,
2013-03-05 09:16:00,61.2,52.8,30.20,SSE,166,2.1,3.5,74,0.00,OVC,,0.00,471.0,WeatherDisplay:10.37,2013-03-05 14:16:00,
2013-03-05 09:21:00,61.8,53.8,30.19,SSE,163,3.2,4.6,75,0.00,OVC,,0.00,487.0,WeatherDisplay:10.37,2013-03-05 14:21:00,
2013-03-05 09:26:00,62.2,54.2,30.19,South,185,1.7,3.5,75,0.00,OVC,,0.00,504.0,WeatherDisplay:10.37,2013-03-05 14:26:00,
2013-03-05 09:31:00,63.1,55.0,30.19,SSE,151,0.8,2.3,75,0.00,OVC,,0.00,520.0,WeatherDisplay:10.37,2013-03-05 14:31:00,
2013-03-05 09:36:00,63.0,54.6,30.19,SSW,207,2.3,3.5,74,0.00,OVC,,0.00,533.0,WeatherDisplay:10.37,2013-03-05 14:36:00,
2013-03-05 09:41:00,63.7,54.9,30.19,SE,143,1.7,3.5,73,0.00,OVC,,0.00,548.0,WeatherDisplay:10.37,2013-03-05 14:41:00,
2013-03-05 09:46:00,63.9,55.4,30.19,SSW,195,3.8,5.8,74,0.00,OVC,,0.00,566.0,WeatherDisplay:10.37,2013-03-05 14:46:00,
2013-03-05 09:51:00,64.2,56.1,30.19,SSW,192,4.7,6.0,75,0.00,OVC,,0.00,580.0,WeatherDisplay:10.37,2013-03-05 14:51:00,
2013-03-05 09:56:00,64.7,55.8,30.20,South,189,3.6,6.9,73,0.00,OVC,,0.00,594.0,WeatherDisplay:10.37,2013-03-05 14:56:00,
2013-03-05 10:01:00,64.9,56.4,30.20,South,177,2.4,4.6,74,0.00,OVC,,0.00,605.0,WeatherDisplay:10.37,2013-03-05 15:01:00,
2013-03-05 10:06:00,65.5,56.2,30.19,SW,227,3.2,4.6,72,0.00,OVC,,0.00,621.0,WeatherDisplay:10.37,2013-03-05 15:06:00,
2013-03-05 10:11:00,66.1,57.2,30.19,SSW,200,0.4,3.5,73,0.00,OVC,,0.00,640.0,WeatherDisplay:10.37,2013-03-05 15:11:00,
2013-03-05 10:16:00,66.4,57.1,30.19,SW,222,1.7,3.5,72,0.00,OVC,,0.00,652.0,WeatherDisplay:10.37,2013-03-05 15:16:00,
2013-03-05 10:21:00,66.5,57.2,30.19,SSE,153,1.4,5.8,72,0.00,OVC,,0.00,664.0,WeatherDisplay:10.37,2013-03-05 15:21:00,
2013-03-05 10:26:00,66.7,57.0,30.19,South,180,3.1,4.6,71,0.00,OVC,,0.00,677.0,WeatherDisplay:10.37,2013-03-05 15:26:00,
2013-03-05 10:31:00,66.9,57.6,30.19,West,279,2.5,4.6,72,0.00,OVC,,0.00,693.0,WeatherDisplay:10.37,2013-03-05 15:31:00,
2013-03-05 10:36:00,66.9,57.2,30.19,SE,144,4.7,8.1,71,0.00,OVC,,0.00,694.0,WeatherDisplay:10.37,2013-03-05 15:36:00,
2013-03-05 10:41:00,67.0,57.3,30.19,SSW,193,1.5,4.0,71,0.00,OVC,,0.00,717.0,WeatherDisplay:10.37,2013-03-05 15:41:00,
2013-03-05 10:46:00,67.5,57.8,30.19,SSE,165,2.7,4.6,71,0.00,OVC,,0.00,728.0,WeatherDisplay:10.37,2013-03-05 15:46:00,
2013-03-05 10:51:00,67.8,57.7,30.19,SW,223,3.2,6.9,70,0.00,OVC,,0.00,740.0,WeatherDisplay:10.37,2013-03-05 15:51:00,
2013-03-05 10:56:00,67.5,57.4,30.19,SSW,206,3.9,5.8,70,0.00,OVC,,0.00,759.0,WeatherDisplay:10.37,2013-03-05 15:56:00,
2013-03-05 11:01:00,68.4,57.8,30.19,SSW,205,1.5,7.0,69,0.00,OVC,,0.00,791.0,WeatherDisplay:10.37,2013-03-05 16:01:00,
2013-03-05 11:06:00,69.0,58.4,30.19,South,186,3.4,6.0,69,0.00,OVC,,0.00,772.0,WeatherDisplay:10.37,2013-03-05 16:06:00,
2013-03-05 11:11:00,68.6,57.6,30.19,WNW,291,3.6,6.9,68,0.00,OVC,,0.00,784.0,WeatherDisplay:10.37,2013-03-05 16:11:00,
2013-03-05 11:16:00,68.9,57.9,30.19,South,186,5.0,8.1,68,0.00,OVC,,0.00,823.0,WeatherDisplay:10.37,2013-03-05 16:16:00,
2013-03-05 11:21:00,68.6,58.0,30.20,SSE,153,1.6,8.1,69,0.00,OVC,,0.00,842.0,WeatherDisplay:10.37,2013-03-05 16:21:00,
2013-03-05 11:26:00,68.8,58.2,30.19,ESE,115,3.6,5.8,69,0.00,OVC,,0.00,828.0,WeatherDisplay:10.37,2013-03-05 16:26:00,
2013-03-05 11:31:00,69.8,58.3,30.19,WSW,257,3.1,6.9,67,0.00,OVC,,0.00,837.0,WeatherDisplay:10.37,2013-03-05 16:31:00,
2013-03-05 11:36:00,69.7,58.7,30.19,WSW,257,3.2,8.1,68,0.00,OVC,,0.00,849.0,WeatherDisplay:10.37,2013-03-05 16:36:00,
2013-03-05 11:41:00,70.0,58.5,30.19,SSW,205,6.5,9.0,67,0.00,OVC,,0.00,863.0,WeatherDisplay:10.37,2013-03-05 16:41:00,
2013-03-05 11:46:00,69.9,58.4,30.19,SSW,195,6.4,8.1,67,0.00,OVC,,0.00,891.0,WeatherDisplay:10.37,2013-03-05 16:46:00,
2013-03-05 11:51:00,69.5,58.1,30.19,South,188,2.1,5.8,67,0.00,OVC,,0.00,886.0,WeatherDisplay:10.37,2013-03-05 16:51:00,
2013-03-05 11:56:00,69.7,58.3,30.19,SSW,213,4.5,6.9,67,0.00,OVC,,0.00,1020.0,WeatherDisplay:10.37,2013-03-05 16:56:00,
2013-03-05 12:01:00,69.5,58.5,30.19,South,174,3.1,4.0,68,0.00,OVC,,0.00,932.0,WeatherDisplay:10.37,2013-03-05 17:01:00,
2013-03-05 12:06:00,70.6,59.1,30.19,ENE,66,1.2,5.8,67,0.00,OVC,,0.00,933.0,WeatherDisplay:10.37,2013-03-05 17:06:00,
2013-03-05 12:11:00,70.0,59.0,30.18,SSW,197,1.1,4.6,68,0.00,OVC,,0.00,911.0,WeatherDisplay:10.37,2013-03-05 17:11:00,
2013-03-05 12:16:00,70.3,58.4,30.18,WSW,237,2.9,4.6,66,0.00,OVC,,0.00,793.0,WeatherDisplay:10.37,2013-03-05 17:16:00,
2013-03-05 12:21:00,70.7,58.8,30.18,SSW,201,4.8,6.9,66,0.00,OVC,,0.00,951.0,WeatherDisplay:10.37,2013-03-05 17:21:00,
2013-03-05 12:26:00,71.2,59.3,30.18,WSW,239,2.5,5.0,66,0.00,OVC,,0.00,912.0,WeatherDisplay:10.37,2013-03-05 17:26:00,
2013-03-05 12:31:00,71.3,58.5,30.17,WSW,252,2.7,4.6,64,0.00,OVC,,0.00,960.0,WeatherDisplay:10.37,2013-03-05 17:31:00,
2013-03-05 12:36:00,71.1,58.3,30.17,South,183,3.7,4.6,64,0.00,OVC,,0.00,928.0,WeatherDisplay:10.37,2013-03-05 17:36:00,
2013-03-05 12:41:00,70.9,58.1,30.17,SW,229,3.2,8.1,64,0.00,OVC,,0.00,900.0,WeatherDisplay:10.37,2013-03-05 17:41:00,
2013-03-05 12:46:00,70.7,58.8,30.17,SSW,197,3.4,11.5,66,0.00,OVC,,0.00,912.0,WeatherDisplay:10.37,2013-03-05 17:46:00,
2013-03-05 12:51:00,71.4,59.0,30.17,South,175,6.5,13.0,65,0.00,OVC,,0.00,893.0,WeatherDisplay:10.37,2013-03-05 17:51:00,
2013-03-05 12:56:00,71.2,58.8,30.17,SSW,207,6.1,7.0,65,0.00,OVC,,0.00,877.0,WeatherDisplay:10.37,2013-03-05 17:56:00,
2013-03-05 13:01:00,71.5,58.2,30.16,SSE,148,3.0,6.9,63,0.00,OVC,,0.00,902.0,WeatherDisplay:10.37,2013-03-05 18:01:00,
2013-03-05 13:06:00,71.5,58.2,30.16,South,175,5.5,9.2,63,0.00,OVC,,0.00,896.0,WeatherDisplay:10.37,2013-03-05 18:06:00,
2013-03-05 13:11:00,71.0,58.2,30.16,West,262,5.4,9.2,64,0.00,OVC,,0.00,872.0,WeatherDisplay:10.37,2013-03-05 18:11:00,
2013-03-05 13:16:00,71.0,58.6,30.15,SW,233,2.5,5.0,65,0.00,OVC,,0.00,912.0,WeatherDisplay:10.37,2013-03-05 18:16:00,
2013-03-05 13:21:00,71.8,58.5,30.15,South,173,2.0,4.6,63,0.00,OVC,,0.00,872.0,WeatherDisplay:10.37,2013-03-05 18:21:00,
2013-03-05 13:26:00,71.7,58.9,30.14,SE,145,5.9,6.0,64,0.00,OVC,,0.00,853.0,WeatherDisplay:10.37,2013-03-05 18:26:00,
2013-03-05 13:31:00,71.3,58.5,30.14,SSW,200,5.7,10.4,64,0.00,OVC,,0.00,847.0,WeatherDisplay:10.37,2013-03-05 18:31:00,
2013-03-05 13:36:00,71.6,57.9,30.14,SW,231,2.3,3.5,62,0.00,OVC,,0.00,844.0,WeatherDisplay:10.37,2013-03-05 18:36:00,
2013-03-05 13:41:00,71.6,58.3,30.14,SW,220,6.2,6.9,63,0.00,OVC,,0.00,835.0,WeatherDisplay:10.37,2013-03-05 18:41:00,
2013-03-05 13:46:00,71.8,58.1,30.14,SW,229,6.2,9.2,62,0.00,OVC,,0.00,823.0,WeatherDisplay:10.37,2013-03-05 18:46:00,
2013-03-05 13:51:00,72.0,57.8,30.14,South,185,6.6,7.0,61,0.00,OVC,,0.00,809.0,WeatherDisplay:10.37,2013-03-05 18:51:00,
2013-03-05 13:56:00,72.5,58.3,30.14,South,180,5.6,9.2,61,0.00,OVC,,0.00,812.0,WeatherDisplay:10.37,2013-03-05 18:56:00,
2013-03-05 14:01:00,72.2,58.0,30.13,SW,215,4.1,11.5,61,0.00,OVC,,0.00,805.0,WeatherDisplay:10.37,2013-03-05 19:01:00,
2013-03-05 14:06:00,72.3,58.1,30.13,SSW,198,2.7,5.8,61,0.00,OVC,,0.00,798.0,WeatherDisplay:10.37,2013-03-05 19:06:00,
2013-03-05 14:11:00,72.2,57.5,30.13,West,281,4.3,4.3,60,0.00,OVC,,0.00,788.0,WeatherDisplay:10.37,2013-03-05 19:11:00,
2013-03-05 14:16:00,72.4,57.7,30.13,WSW,247,4.7,9.2,60,0.00,OVC,,0.00,780.0,WeatherDisplay:10.37,2013-03-05 19:16:00,
2013-03-05 14:21:00,71.8,57.2,30.13,South,178,6.3,7.0,60,0.00,OVC,,0.00,770.0,WeatherDisplay:10.37,2013-03-05 19:21:00,
2013-03-05 14:26:00,72.4,57.7,30.13,SSW,206,4.1,6.9,60,0.00,OVC,,0.00,761.0,WeatherDisplay:10.37,2013-03-05 19:26:00,
2013-03-05 14:31:00,72.6,57.9,30.13,South,181,3.9,5.8,60,0.00,OVC,,0.00,751.0,WeatherDisplay:10.37,2013-03-05 19:31:00,
2013-03-05 14:36:00,72.2,57.5,30.13,SW,228,6.1,10.4,60,0.00,OVC,,0.00,744.0,WeatherDisplay:10.37,2013-03-05 19:36:00,
2013-03-05 14:41:00,71.5,57.8,30.13,NW,313,4.8,6.9,62,0.00,OVC,,0.00,733.0,WeatherDisplay:10.37,2013-03-05 19:41:00,
2013-03-05 14:46:00,71.3,57.2,30.12,West,279,4.8,9.0,61,0.00,OVC,,0.00,721.0,WeatherDisplay:10.37,2013-03-05 19:46:00,
2013-03-05 14:51:00,71.0,56.9,30.12,SW,236,3.7,4.6,61,0.00,OVC,,0.00,712.0,WeatherDisplay:10.37,2013-03-05 19:51:00,
2013-03-05 14:56:00,71.4,57.7,30.12,SSW,192,7.0,12.7,62,0.00,OVC,,0.00,696.0,WeatherDisplay:10.37,2013-03-05 19:56:00,
2013-03-05 15:01:00,71.3,57.6,30.12,SW,214,2.9,6.9,62,0.00,OVC,,0.00,679.0,WeatherDisplay:10.37,2013-03-05 20:01:00,
2013-03-05 15:06:00,71.8,57.2,30.12,SSW,198,6.0,8.1,60,0.00,OVC,,0.00,670.0,WeatherDisplay:10.37,2013-03-05 20:06:00,
2013-03-05 15:11:00,71.7,58.0,30.12,WSW,244,4.3,9.2,62,0.00,OVC,,0.00,650.0,WeatherDisplay:10.37,2013-03-05 20:11:00,
2013-03-05 15:16:00,71.9,58.2,30.13,SSW,211,5.8,9.2,62,0.00,OVC,,0.00,640.0,WeatherDisplay:10.37,2013-03-05 20:16:00,
2013-03-05 15:22:00,71.5,57.8,30.13,SSW,201,4.7,4.7,62,0.00,OVC,,0.00,619.0,WeatherDisplay:10.37,2013-03-05 20:22:00,
2013-03-05 15:27:00,71.3,57.2,30.13,SW,223,4.0,10.4,61,0.00,OVC,,0.00,612.0,WeatherDisplay:10.37,2013-03-05 20:27:00,
2013-03-05 15:32:00,71.2,57.1,30.13,WSW,257,5.4,6.9,61,0.00,OVC,,0.00,598.0,WeatherDisplay:10.37,2013-03-05 20:32:00,
2013-03-05 15:37:00,71.3,57.2,30.13,SW,215,2.3,8.1,61,0.00,OVC,,0.00,580.0,WeatherDisplay:10.37,2013-03-05 20:37:00,
2013-03-05 15:42:00,71.5,57.8,30.13,SSW,194,5.7,10.4,62,0.00,OVC,,0.00,564.0,WeatherDisplay:10.37,2013-03-05 20:42:00,
2013-03-05 15:47:00,71.5,57.8,30.12,SSW,209,1.9,10.4,62,0.00,OVC,,0.00,554.0,WeatherDisplay:10.37,2013-03-05 20:47:00,
2013-03-05 15:52:00,71.8,58.1,30.12,South,181,3.9,5.8,62,0.00,OVC,,0.00,538.0,WeatherDisplay:10.37,2013-03-05 20:52:00,
2013-03-05 15:57:00,71.5,57.8,30.13,SW,221,3.9,5.8,62,0.00,OVC,,0.00,519.0,WeatherDisplay:10.37,2013-03-05 20:57:00,
2013-03-05 16:02:00,71.4,57.7,30.13,WSW,246,4.5,8.1,62,0.00,OVC,,0.00,503.0,WeatherDisplay:10.37,2013-03-05 21:02:00,
2013-03-05 16:07:00,70.9,57.2,30.13,South,179,3.1,4.6,62,0.00,OVC,,0.00,489.0,WeatherDisplay:10.37,2013-03-05 21:07:00,
2013-03-05 16:12:00,70.7,57.9,30.13,West,263,2.8,8.1,64,0.00,OVC,,0.00,473.0,WeatherDisplay:10.37,2013-03-05 21:12:00,
2013-03-05 16:17:00,70.9,57.7,30.13,SSW,192,3.0,9.2,63,0.00,OVC,,0.00,452.0,WeatherDisplay:10.37,2013-03-05 21:17:00,
2013-03-05 16:22:00,70.8,58.0,30.12,SSW,194,2.7,7.0,64,0.00,OVC,,0.00,432.0,WeatherDisplay:10.37,2013-03-05 21:22:00,
2013-03-05 16:27:00,70.7,57.5,30.12,South,170,2.6,8.1,63,0.00,OVC,,0.00,415.0,WeatherDisplay:10.37,2013-03-05 21:27:00,
2013-03-05 16:32:00,70.3,57.5,30.12,SSW,210,5.3,8.1,64,0.00,OVC,,0.00,396.0,WeatherDisplay:10.37,2013-03-05 21:32:00,
2013-03-05 16:37:00,70.2,57.9,30.12,SSW,209,4.9,9.2,65,0.00,OVC,,0.00,381.0,WeatherDisplay:10.37,2013-03-05 21:37:00,
2013-03-05 16:42:00,70.0,57.7,30.12,WNW,288,5.5,9.2,65,0.00,OVC,,0.00,359.0,WeatherDisplay:10.37,2013-03-05 21:42:00,
2013-03-05 16:47:00,69.8,57.9,30.12,WNW,284,2.6,4.0,66,0.00,OVC,,0.00,345.0,WeatherDisplay:10.37,2013-03-05 21:47:00,
2013-03-05 16:52:00,69.7,57.8,30.12,WSW,254,6.0,9.2,66,0.00,OVC,,0.00,325.0,WeatherDisplay:10.37,2013-03-05 21:52:00,
2013-03-05 16:57:00,69.7,57.8,30.12,SSW,206,5.7,8.0,66,0.00,CLR,,0.00,306.0,WeatherDisplay:10.37,2013-03-05 21:57:00,
2013-03-05 17:02:00,69.5,58.1,30.12,South,188,4.2,9.2,67,0.00,CLR,,0.00,288.0,WeatherDisplay:10.37,2013-03-05 22:02:00,
2013-03-05 17:07:00,69.6,58.2,30.12,South,186,3.3,6.0,67,0.00,CLR,,0.00,267.0,WeatherDisplay:10.37,2013-03-05 22:07:00,
2013-03-05 17:12:00,69.4,58.4,30.12,SSW,199,5.2,8.1,68,0.00,CLR,,0.00,250.0,WeatherDisplay:10.37,2013-03-05 22:12:00,
2013-03-05 17:17:00,68.9,58.3,30.12,SSW,196,2.4,4.6,69,0.00,CLR,,0.00,229.0,WeatherDisplay:10.37,2013-03-05 22:17:00,
2013-03-05 17:22:00,68.9,58.3,30.12,SW,217,3.9,8.1,69,0.00,CLR,,0.00,202.0,WeatherDisplay:10.37,2013-03-05 22:22:00,
2013-03-05 17:27:00,68.8,58.6,30.12,SSW,194,3.4,6.0,70,0.00,CLR,,0.00,183.0,WeatherDisplay:10.37,2013-03-05 22:27:00,
2013-03-05 17:32:00,68.8,58.6,30.12,SW,229,1.9,3.5,70,0.00,CLR,,0.00,160.0,WeatherDisplay:10.37,2013-03-05 22:32:00,
2013-03-05 17:37:00,68.8,58.6,30.12,South,184,2.0,6.9,70,0.00,CLR,,0.00,139.0,WeatherDisplay:10.37,2013-03-05 22:37:00,
2013-03-05 17:42:00,68.3,58.5,30.12,SE,132,1.5,3.5,71,0.00,CLR,,0.00,116.0,WeatherDisplay:10.37,2013-03-05 22:42:00,
2013-03-05 17:47:00,68.0,58.6,30.12,South,181,1.9,3.5,72,0.00,SCT,,0.00,95.0,WeatherDisplay:10.37,2013-03-05 22:47:00,
2013-03-05 17:52:00,67.7,58.7,30.12,SSW,204,5.0,11.5,73,0.00,BKN,,0.00,76.0,WeatherDisplay:10.37,2013-03-05 22:52:00,
2013-03-05 17:57:00,67.4,58.4,30.11,South,185,0.4,5.8,73,0.00,BKN,,0.00,62.0,WeatherDisplay:10.37,2013-03-05 22:57:00,
2013-03-05 18:02:00,67.2,58.6,30.11,SSW,192,3.6,6.9,74,0.00,BKN,,0.00,26.0,WeatherDisplay:10.37,2013-03-05 23:02:00,
2013-03-05 18:07:00,66.9,58.3,30.11,SE,144,3.2,6.9,74,0.00,BKN,,0.00,21.0,WeatherDisplay:10.37,2013-03-05 23:07:00,
2013-03-05 18:12:00,66.7,58.5,30.11,SSE,150,1.2,1.2,75,0.00,BKN,,0.00,19.0,WeatherDisplay:10.37,2013-03-05 23:12:00,
2013-03-05 18:17:00,66.4,58.6,30.11,SW,225,4.3,6.9,76,0.00,BKN,,0.00,16.0,WeatherDisplay:10.37,2013-03-05 23:17:00,
2013-03-05 18:22:00,66.2,58.8,30.10,South,169,1.0,3.5,77,0.00,,,0.00,12.0,WeatherDisplay:10.37,2013-03-05 23:22:00,
2013-03-05 18:27:00,65.9,58.8,30.10,South,180,3.9,5.8,78,0.00,,,0.00,9.0,WeatherDisplay:10.37,2013-03-05 23:27:00,
2013-03-05 18:32:00,65.7,58.7,30.10,WSW,256,1.4,4.0,78,0.00,,,0.00,5.0,WeatherDisplay:10.37,2013-03-05 23:32:00,
2013-03-05 18:37:00,65.4,58.7,30.10,SSW,197,2.8,4.6,79,0.00,,,0.00,0.0,WeatherDisplay:10.37,2013-03-05 23:37:00,
2013-03-05 18:42:00,65.1,58.8,30.10,South,184,0.2,2.3,80,0.00,,,0.00,0.0,WeatherDisplay:10.37,2013-03-05 23:42:00,
2013-03-05 18:47:00,64.9,58.9,30.10,SSW,196,2.5,4.6,81,0.00,,,0.00,0.0,WeatherDisplay:10.37,2013-03-05 23:47:00,
2013-03-05 18:52:00,64.7,59.1,30.10,South,178,0.9,3.0,82,0.00,,,0.00,0.0,WeatherDisplay:10.37,2013-03-05 23:52:00,
2013-03-05 18:57:00,64.6,59.3,30.10,South,185,1.8,3.5,83,0.00,,,0.00,0.0,WeatherDisplay:10.37,2013-03-05 23:57:00,
2013-03-05 19:02:00,64.3,59.4,30.10,SSE,165,0.4,2.3,84,0.00,,,0.00,0.0,WeatherDisplay:10.37,2013-03-06 00:02:00,
2013-03-05 19:07:00,64.2,59.3,30.10,SW,214,3.1,3.5,84,0.00,,,0.00,0.0,WeatherDisplay:10.37,2013-03-06 00:07:00,
2013-03-05 19:12:00,64.1,59.5,30.10,SSW,199,1.5,6.9,85,0.00,,,0.00,0.0,WeatherDisplay:10.37,2013-03-06 00:12:00,
2013-03-05 19:17:00,64.1,59.5,30.09,SSW,193,2.0,2.3,85,0.00,,,0.00,0.0,WeatherDisplay:10.37,2013-03-06 00:17:00,
2013-03-05 19:22:00,63.9,59.6,30.09,SSE,162,3.9,3.9,86,0.00,,,0.00,0.0,WeatherDisplay:10.37,2013-03-06 00:22:00,
2013-03-05 19:27:00,63.8,59.9,30.09,South,184,2.7,7.0,87,0.00,,,0.00,0.0,WeatherDisplay:10.37,2013-03-06 00:27:00,
2013-03-05 19:32:00,63.8,59.9,30.09,South,188,2.6,3.5,87,0.00,,,0.00,0.0,WeatherDisplay:10.37,2013-03-06 00:32:00,
2013-03-05 19:37:00,63.9,60.3,30.09,South,191,3.9,6.9,88,0.00,,,0.00,0.0,WeatherDisplay:10.37,2013-03-06 00:37:00,
2013-03-05 19:42:00,63.9,60.3,30.09,SSW,200,2.7,5.8,88,0.00,,,0.00,0.0,WeatherDisplay:10.37,2013-03-06 00:42:00,
2013-03-05 19:47:00,63.8,60.5,30.09,SSW,194,1.8,3.5,89,0.00,,,0.00,0.0,WeatherDisplay:10.37,2013-03-06 00:47:00,
2013-03-05 19:52:00,63.7,60.4,30.09,South,177,2.8,4.6,89,0.00,,,0.00,0.0,WeatherDisplay:10.37,2013-03-06 00:52:00,
2013-03-05 19:57:00,63.7,60.7,30.09,SSE,162,3.2,4.6,90,0.00,,,0.00,0.0,WeatherDisplay:10.37,2013-03-06 00:57:00,
2013-03-05 20:02:00,63.7,60.7,30.09,SSW,192,2.1,7.0,90,0.00,,,0.00,0.0,WeatherDisplay:10.37,2013-03-06 01:02:00,
2013-03-05 20:08:00,63.7,60.7,30.09,South,190,2.3,5.8,90,0.00,,,0.00,0.0,WeatherDisplay:10.37,2013-03-06 01:08:00,
2013-03-05 20:13:00,63.6,60.9,30.09,South,186,2.3,3.5,91,0.00,,,0.00,0.0,WeatherDisplay:10.37,2013-03-06 01:13:00,
2013-03-05 20:18:00,63.6,60.9,30.08,SSW,205,2.2,5.8,91,0.00,,,0.00,0.0,WeatherDisplay:10.37,2013-03-06 01:18:00,
2013-03-05 20:23:00,63.6,61.2,30.09,South,189,1.8,6.9,92,0.00,,,0.00,0.0,WeatherDisplay:10.37,2013-03-06 01:23:00,
2013-03-05 20:28:00,63.6,61.2,30.08,South,171,3.6,8.1,92,0.00,,,0.00,0.0,WeatherDisplay:10.37,2013-03-06 01:28:00,
2013-03-05 20:33:00,63.6,61.2,30.08,SSW,198,1.5,4.6,92,0.00,,,0.00,0.0,WeatherDisplay:10.37,2013-03-06 01:33:00,
2013-03-05 20:38:00,63.5,61.1,30.09,South,190,3.0,5.0,92,0.00,,,0.00,0.0,WeatherDisplay:10.37,2013-03-06 01:38:00,
2013-03-05 20:43:00,63.5,61.1,30.08,South,175,1.2,3.5,92,0.00,,,0.00,0.0,WeatherDisplay:10.37,2013-03-06 01:43:00,
2013-03-05 20:48:00,63.4,61.0,30.08,South,174,1.1,3.5,92,0.00,,,0.00,0.0,WeatherDisplay:10.37,2013-03-06 01:48:00,
2013-03-05 20:53:00,63.5,61.1,30.08,South,180,3.7,8.0,92,0.00,,,0.00,0.0,WeatherDisplay:10.37,2013-03-06 01:53:00,
2013-03-05 20:58:00,63.6,61.2,30.08,South,183,3.5,8.1,92,0.00,,,0.00,0.0,WeatherDisplay:10.37,2013-03-06 01:58:00,
2013-03-05 21:03:00,63.6,61.2,30.08,South,185,2.0,4.6,92,0.00,,,0.00,0.0,WeatherDisplay:10.37,2013-03-06 02:03:00,
2013-03-05 21:08:00,63.7,61.3,30.08,South,190,1.7,3.5,92,0.00,,,0.00,0.0,WeatherDisplay:10.37,2013-03-06 02:08:00,
2013-03-05 21:13:00,63.8,61.7,30.08,South,188,2.2,4.0,93,0.00,,,0.00,0.0,WeatherDisplay:10.37,2013-03-06 02:13:00,
2013-03-05 21:18:00,63.9,61.8,30.08,South,176,5.6,10.4,93,0.00,,,0.00,0.0,WeatherDisplay:10.37,2013-03-06 02:18:00,
2013-03-05 21:23:00,64.0,61.6,30.07,SSW,209,1.6,10.4,92,0.00,,,0.00,0.0,WeatherDisplay:10.37,2013-03-06 02:23:00,
2013-03-05 21:28:00,64.1,61.7,30.08,SSW,198,4.0,9.0,92,0.00,,,0.00,0.0,WeatherDisplay:10.37,2013-03-06 02:28:00,
2013-03-05 21:33:00,64.2,61.8,30.08,SSW,198,4.0,9.0,92,0.00,,,0.00,0.0,WeatherDisplay:10.37,2013-03-06 02:33:00,
2013-03-05 21:38:00,64.3,61.9,30.08,South,191,5.8,7.0,92,0.00,,,0.00,0.0,WeatherDisplay:10.37,2013-03-06 02:38:00,
2013-03-05 21:43:00,64.3,61.9,30.08,South,177,2.0,4.0,92,0.00,,,0.00,0.0,WeatherDisplay:10.37,2013-03-06 02:43:00,
2013-03-05 21:48:00,64.4,62.0,30.08,SSW,198,3.4,4.6,92,0.00,,,0.00,0.0,WeatherDisplay:10.37,2013-03-06 02:48:00,
2013-03-05 21:53:00,64.4,62.3,30.08,SSW,198,4.3,9.2,93,0.00,,,0.00,0.0,WeatherDisplay:10.37,2013-03-06 02:53:00,
2013-03-05 21:58:00,64.5,62.4,30.08,SSW,212,4.9,8.1,93,0.00,,,0.00,0.0,WeatherDisplay:10.37,2013-03-06 02:58:00,
2013-03-05 22:03:00,64.5,62.4,30.08,South,190,3.9,6.9,93,0.00,,,0.00,0.0,WeatherDisplay:10.37,2013-03-06 03:03:00,
2013-03-05 22:08:00,64.5,62.4,30.08,SSW,193,2.7,8.1,93,0.00,,,0.00,0.0,WeatherDisplay:10.37,2013-03-06 03:08:00,
2013-03-05 22:13:00,64.6,62.5,30.08,South,186,5.6,8.1,93,0.00,,,0.00,0.0,WeatherDisplay:10.37,2013-03-06 03:13:00,
2013-03-05 22:18:00,64.7,62.6,30.08,SSW,195,3.9,8.1,93,0.00,,,0.00,0.0,WeatherDisplay:10.37,2013-03-06 03:18:00,
2013-03-05 22:23:00,64.8,62.7,30.08,SW,219,2.6,4.6,93,0.00,,,0.00,0.0,WeatherDisplay:10.37,2013-03-06 03:23:00,
2013-03-05 22:28:00,64.7,62.6,30.08,South,171,3.4,6.0,93,0.00,,,0.00,0.0,WeatherDisplay:10.37,2013-03-06 03:28:00,
2013-03-05 22:33:00,64.7,62.9,30.08,SSE,157,3.8,8.1,94,0.00,,,0.00,0.0,WeatherDisplay:10.37,2013-03-06 03:33:00,
2013-03-05 22:38:00,64.9,63.1,30.08,South,173,2.6,4.0,94,0.00,,,0.00,0.0,WeatherDisplay:10.37,2013-03-06 03:38:00,
2013-03-05 22:43:00,65.0,63.2,30.08,SSW,196,2.1,9.2,94,0.00,,,0.00,0.0,WeatherDisplay:10.37,2013-03-06 03:43:00,
2013-03-05 22:48:00,65.1,63.3,30.08,South,190,2.7,8.1,94,0.00,,,0.00,0.0,WeatherDisplay:10.37,2013-03-06 03:48:00,
2013-03-05 22:53:00,65.2,63.4,30.07,SSE,157,5.8,9.2,94,0.00,,,0.00,0.0,WeatherDisplay:10.37,2013-03-06 03:53:00,
2013-03-05 22:58:00,65.3,63.5,30.07,SSE,158,3.3,9.0,94,0.00,,,0.00,0.0,WeatherDisplay:10.37,2013-03-06 03:58:00,
2013-03-05 23:03:00,65.3,63.5,30.07,SSW,213,3.4,5.8,94,0.00,,,0.00,0.0,WeatherDisplay:10.37,2013-03-06 04:03:00,
2013-03-05 23:08:00,65.3,63.5,30.07,SSW,208,2.8,5.8,94,0.00,,,0.00,0.0,WeatherDisplay:10.37,2013-03-06 04:08:00,
2013-03-05 23:13:00,65.4,63.6,30.07,SSW,204,2.5,3.5,94,0.00,,,0.00,0.0,WeatherDisplay:10.37,2013-03-06 04:13:00,
2013-03-05 23:18:00,65.5,63.7,30.07,South,174,6.5,8.1,94,0.00,,,0.00,0.0,WeatherDisplay:10.37,2013-03-06 04:18:00,
2013-03-05 23:23:00,65.5,63.4,30.07,SSW,192,5.5,8.1,93,0.00,,,0.00,0.0,WeatherDisplay:10.37,2013-03-06 04:23:00,
2013-03-05 23:28:00,65.6,63.5,30.07,SSW,207,4.9,8.1,93,0.00,,,0.00,0.0,WeatherDisplay:10.37,2013-03-06 04:28:00,
2013-03-05 23:33:00,65.6,63.5,30.07,SSW,195,3.2,8.1,93,0.00,,,0.00,0.0,WeatherDisplay:10.37,2013-03-06 04:33:00,
2013-03-05 23:38:00,65.7,63.6,30.07,SW,225,2.6,4.0,93,0.00,,,0.00,0.0,WeatherDisplay:10.37,2013-03-06 04:38:00,
2013-03-05 23:43:00,65.7,63.6,30.07,SSW,208,1.9,3.5,93,0.00,,,0.00,0.0,WeatherDisplay:10.37,2013-03-06 04:43:00,
2013-03-05 23:48:00,65.7,63.6,30.07,SSW,193,5.6,9.2,93,0.00,,,0.00,0.0,WeatherDisplay:10.37,2013-03-06 04:48:00,
2013-03-05 23:53:00,65.7,63.6,30.07,South,186,3.5,5.0,93,0.00,,,0.00,0.0,WeatherDisplay:10.37,2013-03-06 04:53:00,
2013-03-05 23:58:00,65.8,63.7,30.06,SSW,213,2.2,5.8,93,0.00,,,0.00,0.0,WeatherDisplay:10.37,2013-03-06 04:58:00,